User: anonymous   Login
Location: Unspecified
(0.0000°N, 0.0000°E)
Time: 16:02:14
(UTC+01:00)
Language:

H-2A R/B - Orbit

View from above orbital plane
View from above orbital plane
View from above satellite
View from above satellite

Ground track
Ground track

The orbit data is extracted from the following two-line orbital elements,

1 28932U 06002B   14329.81668146  .00001865  00000-0  18991-3 0  8665
2 28932 098.2792 197.6230 0095879 126.6337 005.4096 14.88702253478628
Epoch (UTC): 25 November 2014 19:36:01
Eccentricity: 0.0095879
inclination: 98.2792°
perigee height: 535 km
apogee height: 669 km
right ascension of ascending node: 197.6230°
argument of perigee: 126.6337°
revolutions per day: 14.88702253
mean anomaly at epoch: 5.4096°
orbit number at epoch: 47862

The dashed part of the orbit path shows where the satellite is in the earth's shadow,  

DLR